Regional Weather Roundup
Issued by NWS Upton, NY

Current Version | Previous Version | Graphics & Text | Print | Product List | Glossary Off
Versions: 1 2 3 4 5 6 7 8 9 10 11 12 13 14 15 16 17 18 19 20 21 22 23 24 25 26 27 28

000
ASUS41 KOKX 190008
RWROKX

REGIONAL WEATHER ROUNDUP
NATIONAL WEATHER SERVICE NEW YORK NY
700 PM EST WED JAN 18 2017

NOTE: "FAIR" INDICATES FEW OR NO CLOUDS BELOW 12,000 FEET WITH NO
SIGNIFICANT WEATHER AND/OR OBSTRUCTIONS TO VISIBILITY.

NYZ071-072-176-178-NJZ106-104-190100-
NEW YORK CITY METRO AREA

CITY           SKY/WX    TMP DP  RH WIND       PRES   REMARKS
Central Park   CLOUDY    40  37  89 N8        30.06R WCI  34
Wall St Helipt   N/A     42  37  82 VRB3      30.05R
Bronx Bot Gard NOT AVBL
LaGuardia APRT CLOUDY    42  37  82 N9        30.04R
Kennedy INTL   CLOUDY    42  36  79 N12       30.04R
Breezy Point   NOT AVBL
Newark/Liberty CLOUDY    42  37  82 N9        30.05R
Teterboro      CLOUDY    42  37  82 N7        30.04R
$$

NYZ177-179-078>081-190100-
LONG ISLAND NEW YORK

CITY           SKY/WX    TMP DP  RH WIND       PRES   REMARKS
Jones Beach    NOT AVBL
Matinecock PT  NOT AVBL
Farmingdale    LGT RAIN  40  37  89 N7        30.03R
MacArthur/ISP  CLOUDY    39  37  92 N10       30.02R WCI  32
Shirley        CLOUDY    38  37  97 N9        30.03R WCI  31
Westhampton    CLOUDY    39  36  89 N9        30.02R WCI  33
Southampton    NOT AVBL
Bridgehampton  NOT AVBL
East Hampton   CLOUDY    39  37  93 N9        30.00R WCI  32
Montauk          N/A     41  40  96 N9        30.01R
$$

NYZ052-065-067-190100-
HUDSON VALLEY

CITY           SKY/WX    TMP DP  RH WIND       PRES   REMARKS
White Plains   CLOUDY    39  36  89 NW8       30.02R WCI  33
Newburgh       CLOUDY    37  37 100 MISG      30.05R
Montgomery     CLOUDY    37  35  92 CALM      30.03R
Poughkeepsie   CLOUDY    36  36 100 CALM      30.04R FOG
Albany         DRZL/FOG  35  33  92 CALM      30.04S VSB 1
$$

NJZ001-105-106-008-010-013-015-019>022-104-190100-
NEW JERSEY

CITY           SKY/WX    TMP DP  RH WIND       PRES   REMARKS
Newark/Liberty CLOUDY    42  37  82 N9        30.05R
Teterboro      CLOUDY    42  37  82 N7        30.04R
Caldwell       CLOUDY    40  36  86 CALM      30.05R
Somerville     CLOUDY    41  37  86 CALM      30.03R
Linden         CLOUDY    41  36  81 CALM      30.05R
Sussex         CLOUDY    37  37 100 CALM      30.03S
Andover          N/A     37  36  96 CALM      30.03R
Trenton        CLOUDY    43  38  82 N5        30.03R
Millville      CLOUDY    46  42  86 N7        30.04R
Atlantic City  CLOUDY    44  39  82 NW8       30.03R
Wrightstown    CLOUDY    42  37  82 N8        30.01R
Toms River     CLOUDY    40  39  97 N5        30.04R
Belmar         CLOUDY    40  38  93 N8        30.04R WCI  34
$$

PAZ047>061-062-071-190100-
EASTERN PENNSYLVANIA

CITY           SKY/WX    TMP DP  RH WIND       PRES   REMARKS
Philadelphia   CLOUDY    47  39  74 N13       30.05R
Allentown      CLOUDY    43  38  82 CALM      30.04R
Scranton       CLOUDY    39  38  96 CALM      30.02S
$$

CTZ002-004>006-009-010-012-RIZ004-006-007-MAZ004-011-015-190100-
SOUTHERN NEW ENGLAND
 IN CT

CITY           SKY/WX    TMP DP  RH WIND       PRES   REMARKS
Bradley INTL   CLOUDY    35  33  92 N6        30.04R WCI  30
Hartford       CLOUDY    36  34  92 N6        30.04S WCI  31
Danbury        CLOUDY    38  34  85 CALM      30.04R
Wtrbury/Oxford CLOUDY    36  32  87 N8        30.02R WCI  29
Bridgeport     LGT RAIN  41  35  79 N7        30.03R
Meriden        CLOUDY    39  33  79 N8        30.04R WCI  33
New Haven      CLOUDY    38  35  89 N10       30.03R WCI  31
Chester        CLOUDY    37  36  93 N7        30.01R FOG     WCI  32
Groton         CLOUDY    38  36  92 N12       30.01R WCI  30
Wilimantic     CLOUDY    37  35  92 N6        30.04R WCI  32

 IN RI

CITY           SKY/WX    TMP DP  RH WIND       PRES   REMARKS
Providence     CLOUDY    38  36  92 N10       30.02R FOG     WCI  31
Block Island   NOT AVBL
Westerly       CLOUDY    41  37  86 N7        30.01R
 IN MA

CITY           SKY/WX    TMP DP  RH WIND       PRES   REMARKS
Boston         MIX PCPN  34  34 100 N12       30.05R FOG     WCI  25
Worcester      FOG       30  29  96 N6        30.00R VSB 1/4 WCI  24
Westfield      CLOUDY    34  33  96 N6        30.04R WCI  29
Provincetown   CLOUDY    40  36  86 E12       30.01R WCI  33
Nantucket      CLOUDY    41  38  89 NE14      29.95R FOG
$$

ANZ330-335-338-340-345-350-353-355-190100-
COASTAL MARINE OBSERVATIONS


STATION/POSITION TIME  SKY/WX   TEMP    WIND        PRES    VSBY  WAVE
                                AIR SEA DIR/SP/G                  HT/PER
                 (UTC)          (F)     (DEG/KT/KT) (MB)    (MI)  (FT/S)
NY HARB ENTRANCE 2250            42 44  350/ 14/ 16 1015.7          4/ 7
20 S FIRE ISLAND 2350            41 45  360/ 17/ 19 1015.7          6/ 7
GREAT SOUTH BAY  NOT AVBL
23 SSW MONTAUK P 2350            44 46   30/ 19/ 21 1015.2          7/ 8
15 E BARNEGAT LI 2330               47                N/A           6/ 7
HUDSON CANYON    2250            48 53              1011.9          7/ 6
KINGS POINT      2330            39 38              1017.0
EXECUTION ROCKS  2345            40     330/  6/ 10   N/A
CENTRAL LI SOUND 2330            40     360/ 12/ 16   N/A           1/ 3
EASTERN LI SOUND NOT AVBL
ROBBINS REEF     2330            41     350/ 11/ 13 1017.3
$$


>>>>>>>>>>>>>>>>>>>>>>>>>>>> KEY <<<<<<<<<<<<<<<<<<<<<<<<<<<
>                                                          <
>     SKY/WX - Sky Condition/Present Weather               <
>     TMP    - Temperature in Fahrenheit                   <
>     DP     - Dew Point in Fahrenheit                     <
>     RH     - Relative Humidity in Percent                <
>     WIND   - Direction (from) and Speed in MPH           <
>     PRES   - Mean Sea Level Pressure (inches of Hg)      <
>     WCI    - Wind Chill Index                            <
>     VSB    - VISIBILITY IN MILES                         <
>     HX     - HEAT INDEX                                  <
>     TC     - TEMPERATURE IN CELSIUS                      <
>     VRB    - VARIABLE WIND DIRECTION                     <
>                                                          <
>>>>>>>>>>>>>>>>>>>>>>>>>>>> KEY <<<<<<<<<<<<<<<<<<<<<<<<<<<




USA.gov is the U.S. government's official web portal to all federal, state and local government web resources and services.